Location: Belloy
(55.7522°N, 118.2333°W)
Time: 07:37:37
(UTC+00:00)

X-37B - Pass Details

Date: 14 December 2021
Orbit: 334 x 337 km, 45.0° (Epoch: 11 January)

Event Time Altitude Azimuth Distance (km) Brightness Sun altitude
Rises 01:14:39 0° 234° (SW) 2,104 5.8 -14.6°
Reaches altitude 10° 01:18:06 10° 188° (S) 1,267 3.5 -15.1°
Maximum altitude 01:18:35 10° 179° (S) 1,250 3.4 -15.1°
Drops below altitude 10° 01:19:03 10° 169° (S) 1,267 3.3 -15.2°
Enters shadow 01:20:18 - 147° (SSE) 1,454 3.3 -15.3°
